445  
ASUS42 KILM 240513  
RWRILM  
RWRILM  
REGIONAL HOURLY WEATHER ROUNDUP  
NATIONAL WEATHER SERVICE WILMINGTON NC  
100 AM EDT SUN JUN 24 2018  
 
NOTE: "FAIR" INDICATES FEW OR NO CLOUDS BELOW 12,000 FEET WITH NO  
SIGNIFICANT WEATHER AND/OR S TO VISIBILITY
.  
   
..............WFO WILMINGTON COUNTY WARNING AREA............
 
 
   
.....COASTAL NC AND SC COUNTIES...
 
 
 
CITY SKY/WX TMP DP RH WIND PRES REMARKS
 
WILMINGTON FAIR 81 76 84 SW9 29.91S  
N MYRTLE BEACH FAIR 81 72 74 W8 29.93R  
MYRTLE BEACH FAIR 81 71 71 SW8 29.94S  
   
.....INLAND NC AND SC COUNTIES....
 
 
 
CITY SKY/WX TMP DP RH WIND PRES REMARKS
 
LUMBERTON FAIR 79 71 76 SW7 29.91R  
ELIZABETHTOWN FAIR 80 72 78 SW7 29.92R  
WHITEVILLE FAIR 81 71 71 SW6 29.92S  
FLORENCE FAIR 79 72 79 SW8 29.93R  
DARLINGTON N/A 79 73 82 SW9 29.93R  
KINGSTREE FAIR 77 72 83 CALM 29.94S  
HARTSVILLE FAIR 75 72 88 SW5 29.93R  
BENNETTSVILLE FAIR 77 72 83 S5 29.91S  
CONWAY FAIR 77 72 83 SW5 29.93F  
GEORGETOWN FAIR 77 77 100 SW6 29.95S  
MARION FAIR 77 70 78 SW6 29.93R  
   
...................REST OF NORTH CAROLINA...................
 
 
   
........EASTERN NC......
 
 
 
CITY SKY/WX TMP DP RH WIND PRES REMARKS
 
CAPE HATTERAS MOCLDY 82 79 90 SW15G22 29.90F HX 92  
JACKSONVILLE FAIR 78 77 96 S7 29.91S  
MOREHEAD CITY MOCLDY 82 80 94 SW15 29.92R HX 94  
KENANSVILLE FAIR 77 75 94 CALM 29.90S FOG  
NEW BERN FAIR 77 77 100 SW7 29.91S FOG  
ELIZABETH CITY FAIR 77 76 96 SW8 29.88S  
   
........CENTRAL NC......
 
 
 
CITY SKY/WX TMP DP RH WIND PRES REMARKS
 
RALEIGH DURHAM FAIR 77 69 76 CALM 29.89S  
ROCKY MOUNT FAIR 76 73 91 S3 29.89R  
ROANOKE RAPIDS NOT AVBL  
FAYETTEVILLE FAIR 80 69 69 SW10 29.90R  
HOFFMAN FAIR 78 68 71 SW5 29.91R  
   
........WESTERN NC......
 
 
 
CITY SKY/WX TMP DP RH WIND PRES REMARKS
 
CHARLOTTE MOCLDY 75 66 73 SW6 29.93R  
GREENSBORO FAIR 77 68 73 SW7 29.89F  
HICKORY NOT AVBL  
BOONE NOT AVBL  
ASHEVILLE NOT AVBL  
   
....................REST OF SOUTH CAROLINA..................
 
 
   
........EASTERN SC......
 
 
 
CITY SKY/WX TMP DP RH WIND PRES REMARKS
 
CHARLESTON FAIR 80 74 81 W7 29.95R  
BEAUFORT MCAS FAIR 78 76 93 SW6 29.96S  
HILTON HEAD FAIR 82 75 78 S8 29.97S  
   
........CENTRAL SC......
 
 
 
CITY SKY/WX TMP DP RH WIND PRES REMARKS
 
COLUMBIA FAIR 79 76 90 SW7 29.94R  
ORANGEBURG FAIR 73 70 90 SW3 29.96S  
SUMTER SHAW FAIR 77 72 84 SW9 29.92R  
   
........WESTERN SC......
 
 
 
CITY SKY/WX TMP DP RH WIND PRES REMARKS
 
GREENVILLE NOT AVBL  
ROCK HILL FAIR 75 67 76 SW6 29.94R  
ANDERSON FAIR 76 68 76 SW8 29.97S  
CLEMSON NOT AVBL  
GREENWOOD FAIR 74 69 85 W6 29.98R  
 
   
..................COASTAL AND OFFSHORE REPORTS...............
 
 
   
...............LOCAL PIERS AND NC RESERVE.............
 
 
 
STATION/POSITION TIME SKY/WX TEMP WIND PRES VSBY
 
AIR SEA DIR/SP/G  
(UTC) (F) (DEG/KT/KT) (MB) (MI)  
JOHNY MRCER PIER 0442 82 80 220/ 10/ 12 1013.2S  
NC RESRV MASNBRO 0345 82 250/ 4 1013.0  
OCEAN CREST PIER NOT AVBL  
SPRINGMAID PIER 0442 1017.0R  
 
   
...............COASTAL AND OFFSHORE BUOYS.............
 
 
 
STATION/POSITION TIME SKY/WX TEMP WIND PRES VSBY
 
AIR SEA DIR/SP/G  
(UTC) (F) (DEG/KT/KT) (MB) (MI)  
DIMNDSHOAL 41025 0450 82 82 210/ 17/ 23 1013.4S  
WVE H/P(F/S)= 7/ 7  
 
CAPE LOOKOUT 0500 210/ 11/ 14 1013.4R  
ONSLOW BAY 41036 NOT AVBL  
ONSLOW BAY 41064 NOT AVBL  
ONSLOW BAY 41159 0500 82 N/A  
WVE H/P(F/S)= 6/ 6  
 
MASNBO INL 41110 0500 78 N/A  
WVE H/P(F/S)= 3/ 5  
 
WILM HARBR 41108 0500 82 N/A  
WVE H/P(F/S)= 5/ 6  
 
27SE WRITB 41037 NOT AVBL  
FRYING PAN 41013 0450 83 82 210/ 16/ 19 1013.6F  
WVE H/P(F/S)= 5/ 5  
 
SUNST NRSH 41024 0408 82 80 240/ 14/ 19 1013.1R  
CAPRS NRSH 41029 0408 82 80 240/ 10/ 14 1013.4R  
EDISTO 41004 0450 210/ 17/ 19 1014.2F  
WVE H/P(F/S)= 3/ 5  
 
   
.........OFFSHORE BUOYS BEYOND 100 NM OFFSHORE........
 
   
....IN A TRIANGLE---HAT TO BERMUDA TO BAHAMAS TO HAT..
 
 
 
 
STATION/POSITION TIME SKY/WX TEMP WIND PRES VSBY
 
AIR SEA DIR/SP/G  
(UTC) (F) (DEG/KT/KT) (MB) (MI)  
150E HAT 41001 NOT AVBL  
W BERMUDA 41048 0500 79 200/ 16/ 21 1019.8  
ATLANTIC S 41049 0450 81 120/ 12/ 16 1023.8F  
WVE H/P(F/S)= 4/ 7 SWL H/P/D(F/S/D)= 2/140/ 7  
 
E BAHAMAS 41046 0450 81 82 100/ 12/ 16 1020.2F  
WVE H/P(F/S)= 4/ 7 SWL H/P/D(F/S/D)= 3/130/ 7  
 
NE BAHAMAS 41047 0450 210/ 6/ 10 1021.0F  
WVE H/P(F/S)= 4/ 6 SWL H/P/D(F/S/D)= 3/150/ 6  
 
120E CANVRL41010 0450 83 83 180/ 12/ 14 1017.3F  
WVE H/P(F/S)= 2/ 7 SWL H/P/D(F/S/D)= 2/130/ 7  
 
END  
 
 
CLICK HERE TO GO TO PREVIOUS BULLETINS.

The Nexlab NC Page
The Nexlab SC Page Main Text Page